| time (UTC) | temp F | wind direction | speed MPH | gust MPH | rain 1hr in | rain 24hr in | rain mn in | humidity % | barometer mb |
| 20260906073104 | 65 | 97 | 0.0 | 0.0 | 0.00 | 0.00 | 0.00 | 99 | 1020.4 |
| 20260906072558 | 65 | 97 | 0.0 | 0.0 | 0.00 | 0.00 | 0.00 | 99 | 1020.1 |
| 20260906072055 | 65 | 97 | 0.0 | 0.0 | 0.00 | 0.00 | 0.00 | 99 | 1020.1 |
| 20260906071551 | 65 | 97 | 0.0 | 0.0 | 0.00 | 0.00 | 0.00 | 99 | 1020.2 |
| 20260906071045 | 65 | 97 | 0.0 | 1.0 | 0.00 | 0.00 | 0.00 | 99 | 1020.1 |
| 20260906070542 | 65 | 97 | 1.0 | 2.0 | 0.00 | 0.00 | 0.00 | 99 | 1020.1 |
| 20260906070037 | 65 | 97 | 1.0 | 2.0 | 0.00 | 0.00 | 0.00 | 98 | 1020.1 |
| 20260906065537 | 66 | 97 | 1.0 | 2.0 | 0.00 | 0.00 | 0.00 | 98 | 1020.3 |
| 20260906065033 | 66 | 96 | 0.0 | 1.0 | 0.00 | 0.00 | 0.00 | 98 | 1020.2 |
| 20260906064528 | 66 | 96 | 0.0 | 1.0 | 0.00 | 0.00 | 0.00 | 98 | 1020.3 |
| 20260906064022 | 66 | 96 | 1.0 | 1.0 | 0.00 | 0.00 | 0.00 | 98 | 1020.3 |
| 20260906063518 | 66 | 99 | 2.0 | 2.0 | 0.00 | 0.00 | 0.00 | 98 | 1020.2 |
| 20260906063014 | 66 | 100 | 1.0 | 2.0 | 0.00 | 0.00 | 0.00 | 98 | 1020.1 |
| 20260906061711 | 66 | 103 | 0.0 | 1.0 | 0.00 | 0.00 | 0.00 | 98 | 1020.2 |
| 20260906061207 | 66 | 103 | 0.0 | 1.0 | 0.00 | 0.00 | 0.00 | 98 | 1020.2 |
| 20260906060703 | 67 | 103 | 0.0 | 1.0 | 0.00 | 0.00 | 0.00 | 98 | 1020.1 |
| 20260906060200 | 67 | 103 | 0.0 | 1.0 | 0.00 | 0.00 | 0.00 | 98 | 1020.1 |
| 20260906055655 | 67 | 103 | 1.0 | 1.0 | 0.00 | 0.00 | 0.00 | 98 | 1020.1 |
| 20260906055150 | 67 | 103 | 1.0 | 2.0 | 0.00 | 0.00 | 0.00 | 98 | 1020.0 |
| 20260906054646 | 67 | 111 | 0.0 | 1.0 | 0.00 | 0.00 | 0.00 | 98 | 1019.9 |
| 20260906054140 | 67 | 112 | 1.0 | 1.0 | 0.00 | 0.00 | 0.00 | 98 | 1020.0 |
| 20260906053638 | 68 | 111 | 1.0 | 2.0 | 0.00 | 0.00 | 0.00 | 98 | 1019.9 |
| 20260906053138 | 68 | 114 | 1.0 | 2.0 | 0.00 | 0.00 | 0.00 | 98 | 1020.0 |
| 20260906052633 | 68 | 118 | 1.0 | 2.0 | 0.00 | 0.00 | 0.00 | 98 | 1019.9 |
| 20260906052129 | 68 | 103 | 1.0 | 2.0 | 0.00 | 0.00 | 0.00 | 98 | 1019.9 |
| 20260906051626 | 68 | 119 | 2.0 | 2.0 | 0.00 | 0.00 | 0.00 | 98 | 1019.9 |
| 20260906051126 | 68 | 104 | 1.0 | 2.0 | 0.00 | 0.00 | 0.00 | 98 | 1020.0 |
| 20260906050621 | 68 | 99 | 1.0 | 2.0 | 0.00 | 0.00 | 0.00 | 98 | 1019.6 |
| 20260906050116 | 69 | 106 | 1.0 | 2.0 | 0.00 | 0.00 | 0.00 | 98 | 1019.6 |
| 20260906045614 | 69 | 109 | 0.0 | 2.0 | 0.00 | 0.00 | 0.00 | 98 | 1019.9 |
| 20260906045110 | 69 | 110 | 2.0 | 2.0 | 0.00 | 0.00 | 0.00 | 98 | 1019.9 |
| 20260906044606 | 69 | 112 | 1.0 | 2.0 | 0.00 | 0.00 | 0.00 | 98 | 1019.8 |
| 20260906044101 | 69 | 117 | 0.0 | 1.0 | 0.00 | 0.00 | 0.00 | 98 | 1019.9 |
| 20260906043557 | 69 | 115 | 1.0 | 1.0 | 0.00 | 0.00 | 0.00 | 98 | 1019.8 |
| 20260906043053 | 69 | 116 | 1.0 | 2.0 | 0.00 | 0.00 | 0.00 | 98 | 1019.5 |
| 20260906042551 | 70 | 120 | 1.0 | 2.0 | 0.00 | 0.00 | 0.00 | 98 | 1019.5 |
| 20260906042046 | 70 | 100 | 1.0 | 3.0 | 0.00 | 0.00 | 0.00 | 98 | 1019.5 |
| 20260906041543 | 70 | 112 | 1.0 | 3.0 | 0.00 | 0.00 | 0.00 | 98 | 1019.6 |
| 20260906041037 | 70 | 107 | 1.0 | 2.0 | 0.00 | 0.00 | 0.00 | 97 | 1019.6 |
| 20260906040532 | 71 | 103 | 1.0 | 2.0 | 0.00 | 0.00 | 0.00 | 97 | 1019.5 |
| 20260906040028 | 71 | 103 | 1.0 | 1.0 | 0.00 | 0.00 | 0.00 | 97 | 1019.6 |
| 20260906035522 | 71 | 105 | 1.0 | 2.0 | 0.00 | 0.00 | 0.00 | 97 | 1019.6 |
| 20260906035019 | 71 | 112 | 1.0 | 2.0 | 0.00 | 0.00 | 0.00 | 97 | 1019.5 |
| 20260906034518 | 71 | 114 | 1.0 | 2.0 | 0.00 | 0.00 | 0.00 | 97 | 1019.6 |
| 20260906034014 | 71 | 112 | 1.0 | 2.0 | 0.00 | 0.00 | 0.00 | 97 | 1019.5 |
| 20260906033508 | 72 | 125 | 1.0 | 3.0 | 0.00 | 0.00 | 0.00 | 97 | 1019.6 |
| 20260906033004 | 72 | 200 | 2.0 | 2.0 | 0.00 | 0.00 | 0.00 | 97 | 1019.4 |
| 20260906032500 | 72 | 111 | 1.0 | 2.0 | 0.00 | 0.00 | 0.00 | 97 | 1019.5 |
| 20260906031954 | 72 | 110 | 1.0 | 2.0 | 0.00 | 0.00 | 0.00 | 97 | 1019.8 |
| 20260906031450 | 72 | 109 | 1.0 | 1.0 | 0.00 | 0.00 | 0.00 | 97 | 1019.4 |
| 20260906030945 | 72 | 111 | 2.0 | 2.0 | 0.00 | 0.00 | 0.00 | 97 | 1019.6 |
| 20260906030440 | 72 | 115 | 3.0 | 3.0 | 0.00 | 0.00 | 0.00 | 97 | 1019.6 |
| 20260906025934 | 72 | 115 | 2.0 | 3.0 | 0.00 | 0.00 | 0.00 | 97 | 1019.5 |
| 20260906025428 | 72 | 98 | 3.0 | 3.0 | 0.00 | 0.00 | 0.00 | 96 | 1019.3 |
| 20260906024927 | 72 | 88 | 2.0 | 3.0 | 0.00 | 0.00 | 0.00 | 96 | 1019.3 |
| 20260906024426 | 72 | 87 | 3.0 | 5.0 | 0.00 | 0.00 | 0.00 | 96 | 1019.1 |
| 20260906023922 | 73 | 123 | 3.0 | 6.0 | 0.00 | 0.00 | 0.00 | 96 | 1019.0 |
| 20260906023418 | 73 | 58 | 4.0 | 6.0 | 0.00 | 0.00 | 0.00 | 97 | 1019.0 |
| 20260906022918 | 73 | 86 | 2.0 | 5.0 | 0.00 | 0.00 | 0.00 | 97 | 1018.8 |
| 20260906022413 | 73 | 107 | 2.0 | 2.0 | 0.00 | 0.00 | 0.00 | 97 | 1018.7 |
| 20260906021909 | 73 | 102 | 2.0 | 2.0 | 0.00 | 0.00 | 0.00 | 97 | 1018.8 |
| 20260906021408 | 74 | 104 | 1.0 | 2.0 | 0.00 | 0.00 | 0.00 | 97 | 1018.7 |
| 20260906020903 | 74 | 64 | 0.0 | 3.0 | 0.00 | 0.00 | 0.00 | 97 | 1018.6 |
| 20260906020357 | 74 | 48 | 1.0 | 2.0 | 0.00 | 0.00 | 0.00 | 97 | 1018.4 |
| 20260906015852 | 74 | 27 | 1.0 | 1.0 | 0.00 | 0.00 | 0.00 | 97 | 1018.5 |
| 20260906015351 | 74 | 25 | 1.0 | 1.0 | 0.00 | 0.00 | 0.00 | 97 | 1018.7 |
| 20260906014850 | 75 | 25 | 1.0 | 2.0 | 0.00 | 0.00 | 0.00 | 96 | 1018.2 |
| 20260906014345 | 75 | 25 | 0.0 | 1.0 | 0.00 | 0.00 | 0.00 | 96 | 1018.3 |
| 20260906013841 | 75 | 24 | 0.0 | 2.0 | 0.00 | 0.00 | 0.00 | 96 | 1018.5 |
| 20260906013336 | 75 | 22 | 0.0 | 2.0 | 0.00 | 0.00 | 0.00 | 95 | 1018.5 |
| 20260906012832 | 76 | 323 | 3.0 | 6.0 | 0.00 | 0.00 | 0.00 | 94 | 1018.2 |
| 20260906012327 | 76 | 6 | 5.0 | 8.0 | 0.00 | 0.00 | 0.00 | 93 | 1018.3 |
| 20260906011826 | 77 | 318 | 1.0 | 3.0 | 0.00 | 0.00 | 0.00 | 93 | 1018.3 |
| 20260906011321 | 77 | 90 | 1.0 | 1.0 | 0.00 | 0.00 | 0.00 | 92 | 1018.1 |
| 20260906010818 | 77 | 75 | 1.0 | 8.0 | 0.00 | 0.00 | 0.00 | 92 | 1017.8 |
| 20260906010314 | 77 | 349 | 2.0 | 6.0 | 0.00 | 0.00 | 0.00 | 91 | 1017.7 |
| 20260906005808 | 77 | 91 | 2.0 | 3.0 | 0.00 | 0.00 | 0.00 | 91 | 1017.8 |
| 20260906005307 | 77 | 54 | 1.0 | 5.0 | 0.00 | 0.00 | 0.00 | 90 | 1017.7 |
| 20260906004806 | 77 | 13 | 1.0 | 3.0 | 0.00 | 0.00 | 0.00 | 90 | 1017.5 |
| 20260906004301 | 77 | 4 | 2.0 | 6.0 | 0.00 | 0.00 | 0.00 | 89 | 1017.7 |
| 20260906003756 | 77 | 26 | 2.0 | 2.0 | 0.00 | 0.00 | 0.00 | 89 | 1017.6 |
| 20260906003252 | 77 | 3 | 2.0 | 3.0 | 0.00 | 0.00 | 0.00 | 88 | 1017.4 |
| 20260906002747 | 78 | 8 | 5.0 | 7.0 | 0.00 | 0.00 | 0.00 | 88 | 1017.3 |
| 20260906002246 | 78 | 18 | 3.0 | 6.0 | 0.00 | 0.00 | 0.00 | 88 | 1017.3 |
| 20260906001742 | 78 | 2 | 2.0 | 3.0 | 0.00 | 0.00 | 0.00 | 87 | 1017.3 |
| 20260906001237 | 79 | 327 | 1.0 | 2.0 | 0.00 | 0.00 | 0.00 | 86 | 1017.1 |
| 20260906000733 | 79 | 324 | 2.0 | 2.0 | 0.00 | 0.00 | 0.00 | 86 | 1017.1 |
| 20260906000234 | 79 | 22 | 3.0 | 8.0 | 0.00 | 0.00 | 0.00 | 86 | 1017.1 |
| 20260905235733 | 79 | 312 | 1.0 | 2.0 | 0.00 | 0.00 | 0.00 | 87 | 1017.3 |
| 20260905235227 | 80 | 17 | 3.0 | 7.0 | 0.00 | 0.00 | 0.00 | 87 | 1017.0 |
| 20260905234723 | 80 | 329 | 2.0 | 3.0 | 0.00 | 0.00 | 0.00 | 86 | 1017.2 |
| 20260905234218 | 80 | 26 | 2.0 | 5.0 | 0.00 | 0.00 | 0.00 | 86 | 1017.2 |
| 20260905233713 | 81 | 350 | 1.0 | 3.0 | 0.00 | 0.00 | 0.00 | 85 | 1017.0 |
| 20260905233212 | 81 | 303 | 2.0 | 5.0 | 0.00 | 0.00 | 0.00 | 85 | 1017.2 |
| 20260905232707 | 81 | 38 | 3.0 | 6.0 | 0.00 | 0.00 | 0.00 | 85 | 1016.8 |
| 20260905232203 | 82 | 4 | 1.0 | 5.0 | 0.00 | 0.00 | 0.00 | 84 | 1017.0 |
| 20260905231659 | 82 | 306 | 1.0 | 2.0 | 0.00 | 0.00 | 0.00 | 84 | 1017.0 |
| 20260905231154 | 82 | 341 | 1.0 | 1.0 | 0.00 | 0.00 | 0.00 | 83 | 1017.0 |
| 20260905230650 | 82 | 8 | 1.0 | 5.0 | 0.00 | 0.00 | 0.00 | 84 | 1016.9 |
| 20260905230148 | 82 | 351 | 1.0 | 3.0 | 0.00 | 0.00 | 0.00 | 84 | 1017.0 |
| 20260905225647 | 82 | 349 | 2.0 | 3.0 | 0.00 | 0.00 | 0.00 | 84 | 1016.9 |
| 20260905225142 | 83 | 14 | 2.0 | 5.0 | 0.00 | 0.00 | 0.00 | 84 | 1017.0 |
| 20260905224641 | 83 | 308 | 1.0 | 2.0 | 0.00 | 0.00 | 0.00 | 83 | 1017.0 |
| 20260905224136 | 83 | 357 | 2.0 | 2.0 | 0.00 | 0.00 | 0.00 | 83 | 1017.0 |
| 20260905223633 | 83 | 325 | 2.0 | 5.0 | 0.00 | 0.00 | 0.00 | 83 | 1016.9 |
| 20260905223130 | 84 | 350 | 2.0 | 5.0 | 0.00 | 0.00 | 0.00 | 82 | 1016.9 |
| 20260905222625 | 84 | 353 | 1.0 | 1.0 | 0.00 | 0.00 | 0.00 | 82 | 1016.9 |
| 20260905222120 | 85 | 17 | 3.0 | 3.0 | 0.00 | 0.00 | 0.00 | 81 | 1016.8 |
| 20260905221615 | 85 | 30 | 5.0 | 8.0 | 0.00 | 0.00 | 0.00 | 80 | 1016.7 |
| 20260905221112 | 85 | 44 | 2.0 | 3.0 | 0.00 | 0.00 | 0.00 | 81 | 1017.0 |
| 20260905220607 | 85 | 347 | 4.0 | 6.0 | 0.00 | 0.00 | 0.00 | 81 | 1016.8 |
| 20260905220103 | 85 | 57 | 1.0 | 2.0 | 0.00 | 0.00 | 0.00 | 82 | 1016.5 |
| 20260905215602 | 84 | 310 | 3.0 | 6.0 | 0.00 | 0.00 | 0.00 | 83 | 1016.5 |
| 20260905215058 | 84 | 311 | 2.0 | 6.0 | 0.00 | 0.00 | 0.00 | 84 | 1016.5 |
| 20260905214554 | 84 | 18 | 3.0 | 5.0 | 0.00 | 0.00 | 0.00 | 84 | 1016.5 |
| 20260905214049 | 84 | 14 | 4.0 | 7.0 | 0.00 | 0.00 | 0.00 | 83 | 1016.5 |
| 20260905213544 | 85 | 7 | 6.0 | 8.0 | 0.00 | 0.00 | 0.00 | 82 | 1016.5 |
| 20260905213039 | 86 | 2 | 2.0 | 3.0 | 0.00 | 0.00 | 0.00 | 82 | 1016.4 |
| 20260905212534 | 86 | 1 | 2.0 | 2.0 | 0.00 | 0.00 | 0.00 | 82 | 1016.0 |
| 20260905212034 | 85 | 7 | 3.0 | 6.0 | 0.00 | 0.00 | 0.00 | 81 | 1016.2 |
| 20260905211529 | 86 | 15 | 4.0 | 7.0 | 0.00 | 0.00 | 0.00 | 80 | 1016.4 |
| 20260905211025 | 86 | 351 | 3.0 | 9.0 | 0.00 | 0.00 | 0.00 | 79 | 1016.2 |
| 20260905210520 | 88 | 10 | 3.0 | 7.0 | 0.00 | 0.00 | 0.00 | 77 | 1015.9 |
| 20260905210020 | 90 | 313 | 1.0 | 2.0 | 0.00 | 0.00 | 0.00 | 73 | 1016.3 |
| 20260905205514 | 90 | 315 | 2.0 | 3.0 | 0.00 | 0.00 | 0.00 | 71 | 1016.3 |
| 20260905205013 | 91 | 20 | 3.0 | 7.0 | 0.00 | 0.00 | 0.00 | 71 | 1016.3 |
| 20260905204508 | 92 | 285 | 0.0 | 1.0 | 0.00 | 0.00 | 0.00 | 70 | 1016.4 |
| 20260905204003 | 91 | 276 | 1.0 | 2.0 | 0.00 | 0.00 | 0.00 | 72 | 1016.4 |
| 20260905203458 | 91 | 256 | 2.0 | 3.0 | 0.00 | 0.00 | 0.00 | 74 | 1016.3 |
| 20260905202953 | 91 | 261 | 0.0 | 2.0 | 0.00 | 0.00 | 0.00 | 73 | 1016.4 |
| 20260905202448 | 90 | 252 | 1.0 | 2.0 | 0.00 | 0.00 | 0.00 | 74 | 1016.2 |
| 20260905201944 | 90 | 235 | 3.0 | 5.0 | 0.00 | 0.00 | 0.00 | 74 | 1016.3 |
| 20260905201439 | 91 | 246 | 3.0 | 3.0 | 0.00 | 0.00 | 0.00 | 70 | 1016.3 |
| 20260905200933 | 91 | 241 | 1.0 | 2.0 | 0.00 | 0.00 | 0.00 | 71 | 1016.5 |
| 20260905200429 | 91 | 238 | 3.0 | 3.0 | 0.00 | 0.00 | 0.00 | 72 | 1016.5 |
| 20260905195927 | 90 | 234 | 2.0 | 2.0 | 0.00 | 0.00 | 0.00 | 72 | 1016.6 |
| 20260905195422 | 91 | 240 | 4.0 | 6.0 | 0.00 | 0.00 | 0.00 | 72 | 1016.8 |
| 20260905194918 | 91 | 318 | 1.0 | 1.0 | 0.00 | 0.00 | 0.00 | 71 | 1016.6 |
| 20260905194417 | 92 | 231 | 1.0 | 2.0 | 0.00 | 0.00 | 0.00 | 71 | 1016.7 |
| 20260905193917 | 91 | 284 | 1.0 | 1.0 | 0.00 | 0.00 | 0.00 | 71 | 1017.0 |
| 20260905193412 | 90 | 257 | 1.0 | 1.0 | 0.00 | 0.00 | 0.00 | 73 | 1017.2 |
| 20260905192907 | 89 | 261 | 3.0 | 3.0 | 0.00 | 0.00 | 0.00 | 73 | 1017.0 |
| 20260905192403 | 88 | 263 | 1.0 | 2.0 | 0.00 | 0.00 | 0.00 | 75 | 1017.2 |
| 20260905191857 | 86 | 250 | 1.0 | 5.0 | 0.00 | 0.00 | 0.00 | 80 | 1017.1 |
| 20260905191356 | 84 | 254 | 2.0 | 2.0 | 0.00 | 0.00 | 0.00 | 83 | 1017.1 |
| 20260905190855 | 84 | 242 | 2.0 | 3.0 | 0.00 | 0.00 | 0.00 | 82 | 1017.2 |
| 20260905190348 | 84 | 236 | 2.0 | 3.0 | 0.00 | 0.00 | 0.00 | 82 | 1017.3 |
| 20260905185847 | 84 | 251 | 2.0 | 5.0 | 0.00 | 0.00 | 0.00 | 81 | 1017.3 |
| 20260905185343 | 85 | 248 | 2.0 | 3.0 | 0.00 | 0.00 | 0.00 | 79 | 1017.4 |
| 20260905184842 | 86 | 262 | 3.0 | 3.0 | 0.00 | 0.00 | 0.00 | 79 | 1017.3 |
| 20260905184341 | 86 | 246 | 1.0 | 3.0 | 0.00 | 0.00 | 0.00 | 76 | 1017.6 |
| 20260905183840 | 86 | 262 | 1.0 | 2.0 | 0.00 | 0.00 | 0.00 | 76 | 1017.5 |
| 20260905183335 | 87 | 277 | 1.0 | 1.0 | 0.00 | 0.00 | 0.00 | 76 | 1017.6 |
| 20260905182830 | 88 | 234 | 5.0 | 7.0 | 0.00 | 0.00 | 0.00 | 77 | 1017.4 |
| 20260905182329 | 87 | 239 | 5.0 | 6.0 | 0.00 | 0.00 | 0.00 | 76 | 1017.6 |
| 20260905181825 | 87 | 238 | 2.0 | 6.0 | 0.00 | 0.00 | 0.00 | 74 | 1017.4 |
| 20260905181325 | 87 | 244 | 5.0 | 7.0 | 0.00 | 0.00 | 0.00 | 75 | 1017.6 |
| 20260905180824 | 86 | 238 | 7.0 | 8.0 | 0.00 | 0.00 | 0.00 | 76 | 1017.5 |
| 20260905180319 | 86 | 204 | 6.0 | 7.0 | 0.00 | 0.00 | 0.00 | 77 | 1017.6 |
| 20260905175814 | 85 | 248 | 8.0 | 10.0 | 0.00 | 0.00 | 0.00 | 76 | 1017.6 |
| 20260905175308 | 85 | 258 | 5.0 | 7.0 | 0.00 | 0.00 | 0.00 | 78 | 1017.7 |
| 20260905174803 | 85 | 194 | 7.0 | 9.0 | 0.00 | 0.00 | 0.00 | 77 | 1017.9 |
| 20260905174259 | 85 | 269 | 7.0 | 8.0 | 0.00 | 0.00 | 0.00 | 77 | 1017.9 |
| 20260905173755 | 85 | 250 | 6.0 | 8.0 | 0.00 | 0.00 | 0.00 | 79 | 1018.1 |
| 20260905173251 | 84 | 233 | 6.0 | 7.0 | 0.00 | 0.00 | 0.00 | 79 | 1017.8 |
| 20260905172750 | 84 | 240 | 6.0 | 7.0 | 0.00 | 0.00 | 0.00 | 81 | 1018.2 |
| 20260905172249 | 83 | 221 | 5.0 | 7.0 | 0.00 | 0.00 | 0.00 | 79 | 1017.9 |
| 20260905171745 | 82 | 215 | 6.0 | 7.0 | 0.00 | 0.00 | 0.00 | 80 | 1018.4 |
| 20260905171242 | 82 | 233 | 7.0 | 9.0 | 0.00 | 0.00 | 0.00 | 78 | 1018.6 |
| 20260905170738 | 82 | 238 | 7.0 | 9.0 | 0.00 | 0.00 | 0.00 | 78 | 1018.5 |
| 20260905170233 | 82 | 247 | 9.0 | 9.0 | 0.00 | 0.00 | 0.00 | 78 | 1018.4 |
| 20260905165732 | 82 | 237 | 6.0 | 8.0 | 0.00 | 0.00 | 0.00 | 78 | 1018.5 |
| 20260905165228 | 83 | 252 | 5.0 | 7.0 | 0.00 | 0.00 | 0.00 | 82 | 1018.4 |
| 20260905164728 | 83 | 204 | 5.0 | 6.0 | 0.00 | 0.00 | 0.00 | 80 | 1018.7 |
| 20260905164223 | 82 | 179 | 5.0 | 8.0 | 0.00 | 0.00 | 0.00 | 79 | 1018.4 |
| 20260905163719 | 81 | 222 | 4.0 | 6.0 | 0.00 | 0.00 | 0.00 | 81 | 1018.7 |
| 20260905163215 | 81 | 221 | 6.0 | 7.0 | 0.00 | 0.00 | 0.00 | 81 | 1018.8 |
| 20260905162711 | 81 | 207 | 7.0 | 9.0 | 0.00 | 0.00 | 0.00 | 81 | 1018.8 |
| 20260905162210 | 80 | 212 | 6.0 | 7.0 | 0.00 | 0.00 | 0.00 | 81 | 1018.8 |
| 20260905161705 | 80 | 257 | 4.0 | 6.0 | 0.00 | 0.00 | 0.00 | 82 | 1018.7 |
| 20260905161203 | 80 | 242 | 6.0 | 8.0 | 0.00 | 0.00 | 0.00 | 81 | 1019.0 |
| 20260905160656 | 80 | 211 | 7.0 | 8.0 | 0.00 | 0.00 | 0.00 | 81 | 1018.8 |
| 20260905160155 | 80 | 244 | 6.0 | 8.0 | 0.00 | 0.00 | 0.00 | 81 | 1018.6 |
| 20260905155650 | 80 | 215 | 6.0 | 8.0 | 0.00 | 0.00 | 0.00 | 81 | 1018.7 |
| 20260905155149 | 80 | 228 | 6.0 | 9.0 | 0.00 | 0.00 | 0.00 | 82 | 1018.7 |
| 20260905154643 | 80 | 231 | 8.0 | 10.0 | 0.00 | 0.00 | 0.00 | 81 | 1018.8 |
| 20260905154139 | 80 | 239 | 6.0 | 8.0 | 0.00 | 0.00 | 0.00 | 82 | 1018.6 |
| 20260905153635 | 80 | 217 | 5.0 | 7.0 | 0.00 | 0.00 | 0.00 | 82 | 1018.5 |
| 20260905153130 | 79 | 191 | 6.0 | 10.0 | 0.00 | 0.00 | 0.00 | 81 | 1018.8 |
| 20260905152625 | 79 | 258 | 7.0 | 8.0 | 0.00 | 0.00 | 0.00 | 82 | 1018.5 |
| 20260905152120 | 79 | 231 | 7.0 | 11.0 | 0.00 | 0.00 | 0.00 | 82 | 1018.4 |
| 20260905151615 | 79 | 239 | 8.0 | 11.0 | 0.00 | 0.00 | 0.00 | 83 | 1018.2 |
| 20260905151111 | 78 | 199 | 7.0 | 10.0 | 0.00 | 0.00 | 0.00 | 84 | 1018.4 |
| 20260905150606 | 78 | 238 | 7.0 | 10.0 | 0.00 | 0.00 | 0.00 | 83 | 1018.5 |
| 20260905150104 | 78 | 202 | 6.0 | 7.0 | 0.00 | 0.00 | 0.00 | 86 | 1018.4 |
| 20260905145603 | 77 | 223 | 6.0 | 8.0 | 0.00 | 0.00 | 0.00 | 85 | 1018.9 |
| 20260905145102 | 76 | 221 | 9.0 | 10.0 | 0.00 | 0.00 | 0.00 | 85 | 1019.0 |
| 20260905144557 | 76 | 222 | 10.0 | 14.0 | 0.00 | 0.00 | 0.00 | 85 | 1018.7 |
| 20260905144056 | 77 | 229 | 7.0 | 11.0 | 0.00 | 0.00 | 0.00 | 86 | 1018.7 |
| 20260905143555 | 76 | 214 | 8.0 | 11.0 | 0.00 | 0.00 | 0.00 | 86 | 1018.7 |
| 20260905143051 | 75 | 198 | 6.0 | 8.0 | 0.00 | 0.00 | 0.00 | 87 | 1018.7 |
| 20260905142549 | 75 | 233 | 5.0 | 7.0 | 0.00 | 0.00 | 0.00 | 88 | 1018.5 |
| 20260905142044 | 75 | 220 | 8.0 | 10.0 | 0.00 | 0.00 | 0.00 | 87 | 1018.5 |
| 20260905141539 | 75 | 207 | 5.0 | 7.0 | 0.00 | 0.00 | 0.00 | 87 | 1018.5 |
| 20260905141035 | 75 | 219 | 5.0 | 7.0 | 0.00 | 0.00 | 0.00 | 87 | 1018.6 |
| 20260905140530 | 75 | 182 | 5.0 | 7.0 | 0.00 | 0.00 | 0.00 | 88 | 1018.4 |
| 20260905140029 | 74 | 213 | 9.0 | 9.0 | 0.00 | 0.00 | 0.00 | 88 | 1018.2 |
| 20260905135525 | 74 | 229 | 7.0 | 9.0 | 0.00 | 0.00 | 0.00 | 89 | 1018.2 |
| 20260905135019 | 73 | 211 | 5.0 | 10.0 | 0.00 | 0.00 | 0.00 | 89 | 1018.1 |
| 20260905134514 | 73 | 227 | 5.0 | 7.0 | 0.00 | 0.00 | 0.00 | 90 | 1018.2 |
| 20260905134013 | 73 | 223 | 7.0 | 13.0 | 0.00 | 0.00 | 0.00 | 90 | 1018.3 |
| 20260905133508 | 73 | 222 | 8.0 | 9.0 | 0.00 | 0.00 | 0.00 | 90 | 1018.1 |
| 20260905133002 | 73 | 221 | 5.0 | 7.0 | 0.00 | 0.00 | 0.00 | 90 | 1017.9 |
| 20260905132457 | 73 | 203 | 7.0 | 11.0 | 0.00 | 0.00 | 0.00 | 90 | 1018.2 |
| 20260905131951 | 72 | 207 | 9.0 | 11.0 | 0.00 | 0.00 | 0.00 | 90 | 1018.3 |
| 20260905131447 | 72 | 209 | 5.0 | 9.0 | 0.00 | 0.00 | 0.00 | 91 | 1018.5 |
| 20260905130948 | 72 | 227 | 6.0 | 10.0 | 0.00 | 0.00 | 0.00 | 91 | 1018.6 |
| 20260905130442 | 72 | 210 | 5.0 | 8.0 | 0.00 | 0.00 | 0.00 | 91 | 1018.6 |
| 20260905125941 | 71 | 212 | 8.0 | 8.0 | 0.00 | 0.00 | 0.00 | 91 | 1018.6 |
| 20260905125436 | 71 | 203 | 3.0 | 7.0 | 0.00 | 0.00 | 0.00 | 92 | 1018.7 |
| 20260905124932 | 71 | 196 | 3.0 | 8.0 | 0.00 | 0.00 | 0.00 | 92 | 1018.7 |
| 20260905124428 | 70 | 181 | 3.0 | 6.0 | 0.00 | 0.00 | 0.00 | 93 | 1018.5 |
| 20260905123928 | 71 | 207 | 6.0 | 8.0 | 0.00 | 0.00 | 0.00 | 93 | 1018.5 |
| 20260905123425 | 70 | 207 | 4.0 | 6.0 | 0.00 | 0.00 | 0.00 | 93 | 1018.5 |
| 20260905122920 | 70 | 192 | 0.0 | 6.0 | 0.00 | 0.00 | 0.00 | 93 | 1018.6 |
| 20260905122419 | 70 | 204 | 4.0 | 6.0 | 0.00 | 0.00 | 0.00 | 93 | 1018.4 |
| 20260905121915 | 70 | 201 | 2.0 | 3.0 | 0.00 | 0.00 | 0.00 | 94 | 1018.5 |
| 20260905121411 | 70 | 246 | 1.0 | 2.0 | 0.00 | 0.00 | 0.00 | 94 | 1018.5 |
| 20260905120909 | 70 | 188 | 0.0 | 6.0 | 0.00 | 0.00 | 0.00 | 94 | 1018.6 |
| 20260905120404 | 70 | 187 | 0.0 | 1.0 | 0.00 | 0.00 | 0.00 | 94 | 1018.4 |
| 20260905115859 | 69 | 191 | 5.0 | 6.0 | 0.00 | 0.00 | 0.00 | 95 | 1018.7 |
| 20260905115358 | 69 | 205 | 0.0 | 2.0 | 0.00 | 0.00 | 0.00 | 95 | 1018.7 |
| 20260905114853 | 69 | 214 | 1.0 | 3.0 | 0.00 | 0.00 | 0.00 | 95 | 1018.5 |
| 20260905114352 | 69 | 202 | 1.0 | 3.0 | 0.00 | 0.00 | 0.00 | 95 | 1018.6 |
| 20260905113846 | 69 | 206 | 0.0 | 3.0 | 0.00 | 0.00 | 0.00 | 95 | 1018.5 |
| 20260905113341 | 69 | 167 | 0.0 | 5.0 | 0.00 | 0.00 | 0.00 | 95 | 1018.3 |
| 20260905112837 | 69 | 228 | 3.0 | 5.0 | 0.00 | 0.00 | 0.00 | 95 | 1018.1 |
| 20260905112331 | 69 | 141 | 1.0 | 6.0 | 0.00 | 0.00 | 0.00 | 95 | 1018.4 |
| 20260905111827 | 69 | 112 | 2.0 | 2.0 | 0.00 | 0.00 | 0.00 | 94 | 1018.3 |
| 20260905111321 | 70 | 218 | 1.0 | 2.0 | 0.00 | 0.00 | 0.00 | 94 | 1018.3 |
| 20260905110820 | 70 | 77 | 2.0 | 3.0 | 0.00 | 0.00 | 0.00 | 94 | 1018.5 |
| 20260905110314 | 71 | 144 | 0.0 | 1.0 | 0.00 | 0.00 | 0.00 | 94 | 1018.3 |
| 20260905105810 | 71 | 139 | 3.0 | 5.0 | 0.00 | 0.00 | 0.00 | 94 | 1018.2 |
| 20260905105309 | 72 | 127 | 4.0 | 5.0 | 0.00 | 0.00 | 0.00 | 95 | 1018.3 |
| 20260905104803 | 73 | 109 | 3.0 | 6.0 | 0.00 | 0.00 | 0.00 | 95 | 1018.1 |
| 20260905104300 | 74 | 106 | 3.0 | 3.0 | 0.00 | 0.00 | 0.00 | 96 | 1018.1 |
| 20260905103759 | 74 | 107 | 3.0 | 3.0 | 0.00 | 0.00 | 0.00 | 96 | 1017.9 |
| 20260905103255 | 74 | 92 | 3.0 | 3.0 | 0.00 | 0.00 | 0.00 | 98 | 1017.9 |
| 20260905102750 | 73 | 86 | 3.0 | 5.0 | 0.00 | 0.00 | 0.00 | 98 | 1017.8 |
| 20260905102247 | 73 | 159 | 0.0 | 2.0 | 0.00 | 0.00 | 0.00 | 97 | 1017.9 |
| 20260905101746 | 73 | 229 | 0.0 | 0.0 | 0.00 | 0.00 | 0.00 | 97 | 1017.6 |
| 20260905101245 | 73 | 229 | 0.0 | 0.0 | 0.00 | 0.00 | 0.00 | 97 | 1017.5 |
| 20260905100740 | 74 | 229 | 0.0 | 0.0 | 0.00 | 0.00 | 0.00 | 96 | 1017.4 |
| 20260905100236 | 74 | 229 | 0.0 | 0.0 | 0.00 | 0.00 | 0.00 | 96 | 1017.4 |
| 20260905095736 | 74 | 230 | 0.0 | 1.0 | 0.00 | 0.00 | 0.00 | 96 | 1017.6 |
| 20260905095235 | 74 | 234 | 0.0 | 1.0 | 0.00 | 0.00 | 0.00 | 96 | 1017.6 |
| 20260905094730 | 74 | 234 | 0.0 | 1.0 | 0.00 | 0.00 | 0.00 | 96 | 1017.3 |
| 20260905094225 | 74 | 235 | 1.0 | 1.0 | 0.00 | 0.00 | 0.00 | 96 | 1017.4 |
| 20260905093725 | 74 | 235 | 1.0 | 1.0 | 0.00 | 0.00 | 0.00 | 96 | 1017.4 |
| 20260905093221 | 75 | 235 | 1.0 | 1.0 | 0.00 | 0.00 | 0.00 | 96 | 1017.2 |
| 20260905092716 | 75 | 238 | 1.0 | 1.0 | 0.00 | 0.00 | 0.00 | 96 | 1017.4 |
| 20260905092211 | 74 | 233 | 1.0 | 2.0 | 0.00 | 0.00 | 0.00 | 96 | 1017.5 |
| 20260905091711 | 74 | 225 | 1.0 | 1.0 | 0.00 | 0.00 | 0.00 | 97 | 1017.6 |
| 20260905091206 | 74 | 218 | 0.0 | 1.0 | 0.00 | 0.00 | 0.00 | 97 | 1017.6 |
| 20260905090705 | 74 | 214 | 1.0 | 2.0 | 0.00 | 0.00 | 0.00 | 97 | 1017.5 |
| 20260905090201 | 74 | 243 | 1.0 | 2.0 | 0.00 | 0.00 | 0.00 | 96 | 1017.2 |
| 20260905085700 | 74 | 243 | 1.0 | 1.0 | 0.00 | 0.00 | 0.00 | 96 | 1017.5 |
| 20260905085155 | 74 | 243 | 0.0 | 0.0 | 0.00 | 0.00 | 0.00 | 96 | 1017.6 |
| 20260905084654 | 74 | 243 | 0.0 | 0.0 | 0.00 | 0.00 | 0.00 | 96 | 1017.5 |
| 20260905084149 | 74 | 243 | 0.0 | 0.0 | 0.00 | 0.00 | 0.00 | 96 | 1017.5 |
| 20260905083644 | 75 | 243 | 0.0 | 1.0 | 0.00 | 0.00 | 0.00 | 96 | 1017.3 |
| 20260905083141 | 75 | 243 | 0.0 | 0.0 | 0.00 | 0.00 | 0.00 | 95 | 1017.4 |
| 20260905082636 | 75 | 244 | 1.0 | 2.0 | 0.00 | 0.00 | 0.00 | 95 | 1017.4 |
| 20260905082131 | 75 | 244 | 0.0 | 1.0 | 0.00 | 0.00 | 0.00 | 95 | 1017.2 |
| 20260905081626 | 76 | 236 | 3.0 | 3.0 | 0.00 | 0.00 | 0.00 | 94 | 1017.5 |
| 20260905081126 | 76 | 242 | 0.0 | 1.0 | 0.00 | 0.00 | 0.00 | 94 | 1017.5 |
| 20260905080621 | 76 | 238 | 2.0 | 2.0 | 0.00 | 0.00 | 0.00 | 94 | 1017.4 |
| 20260905080115 | 76 | 230 | 2.0 | 2.0 | 0.00 | 0.00 | 0.00 | 94 | 1017.2 |
| 20260905075614 | 76 | 228 | 1.0 | 2.0 | 0.00 | 0.00 | 0.00 | 95 | 1017.2 |
| 20260905075108 | 75 | 214 | 2.0 | 2.0 | 0.00 | 0.00 | 0.00 | 95 | 1017.2 |
| 20260905074607 | 76 | 213 | 2.0 | 2.0 | 0.00 | 0.00 | 0.00 | 95 | 1017.2 |
| 20260905074103 | 75 | 208 | 2.0 | 2.0 | 0.00 | 0.00 | 0.00 | 95 | 1017.1 |
| 20260905073558 | 75 | 231 | 1.0 | 1.0 | 0.00 | 0.00 | 0.00 | 95 | 1017.0 |